User: anonymous   Login
Location: El Escondido
(32.5691°N, 116.4250°W)
Time: 00:57:58
(UTC+00:00)
Language:

ISS - Orbit

View from above orbital plane
View from above orbital plane
View from above satellite
View from above satellite

Ground track
Ground track

The orbit data is extracted from the following two-line orbital elements,

1 25544U 98067A   24205.84377361  .00018792  00000-0  33355-3 0  9991
2 25544  51.6394 133.7307 0010295  99.2734   1.9324 15.50199945464231
Epoch (UTC): 23 July 2024 20:15:02
Eccentricity: 0.0010295
inclination: 51.6394°
perigee height: 409 km
apogee height: 423 km
right ascension of ascending node: 133.7307°
argument of perigee: 99.2734°
revolutions per day: 15.50199945
mean anomaly at epoch: 1.9324°
orbit number at epoch: 46423

The dashed part of the orbit path shows where the satellite is in the earth's shadow,  

DLR